| time (UTC) | temp F | wind direction | speed MPH | gust MPH | rain 1hr in | rain 24hr in | rain mn in | humidity % | barometer mb |
| 20260506080511 | 57 | 0 | 0.0 | 1.0 | 0.00 | 0.01 | 0.00 | 85 | 1018.4 |
| 20260506073512 | 57 | 0 | 0.0 | 0.0 | 0.00 | 0.04 | 0.00 | 85 | 1018.1 |
| 20260506073029 | 57 | 0 | 0.0 | 0.0 | 0.00 | 0.04 | 0.00 | 84 | 1018.1 |
| 20260506072512 | 57 | 0 | 0.0 | 1.0 | 0.00 | 0.04 | 0.00 | 84 | 1018.0 |
| 20260506072014 | 57 | 0 | 0.0 | 2.0 | 0.00 | 0.04 | 0.00 | 84 | 1017.9 |
| 20260506071530 | 57 | 0 | 0.0 | 3.0 | 0.00 | 0.04 | 0.00 | 84 | 1018.0 |
| 20260506071013 | 57 | 259 | 0.0 | 3.0 | 0.00 | 0.04 | 0.00 | 84 | 1017.8 |
| 20260506070514 | 57 | 259 | 0.0 | 3.0 | 0.00 | 0.04 | 0.00 | 84 | 1017.8 |
| 20260506062512 | 57 | 269 | 3.0 | 6.0 | 0.00 | 0.07 | 0.04 | 84 | 1017.4 |
| 20260506062013 | 57 | 273 | 1.0 | 6.0 | 0.00 | 0.07 | 0.04 | 84 | 1017.4 |
| 20260506061528 | 57 | 288 | 1.0 | 6.0 | 0.00 | 0.07 | 0.04 | 84 | 1017.4 |
| 20260506061012 | 57 | 268 | 1.0 | 4.0 | 0.00 | 0.07 | 0.04 | 84 | 1017.3 |
| 20260506060513 | 57 | 306 | 2.0 | 6.0 | 0.00 | 0.07 | 0.04 | 84 | 1017.4 |
| 20260506051011 | 58 | 259 | 3.0 | 7.0 | 0.00 | 0.10 | 0.04 | 82 | 1016.8 |
| 20260506050512 | 58 | 246 | 4.0 | 7.0 | 0.00 | 0.10 | 0.04 | 81 | 1016.9 |
| 20260506045013 | 59 | 234 | 3.0 | 10.0 | 0.00 | 0.15 | 0.04 | 80 | 1016.8 |
| 20260506044538 | 59 | 262 | 5.0 | 10.0 | 0.00 | 0.15 | 0.04 | 80 | 1016.7 |
| 20260506044012 | 59 | 244 | 4.0 | 10.0 | 0.00 | 0.15 | 0.04 | 80 | 1016.6 |
| 20260506043513 | 60 | 262 | 6.0 | 10.0 | 0.00 | 0.15 | 0.04 | 79 | 1016.4 |
| 20260506043027 | 60 | 261 | 6.0 | 10.0 | 0.00 | 0.15 | 0.04 | 79 | 1016.4 |
| 20260506042512 | 61 | 252 | 6.0 | 10.0 | 0.00 | 0.15 | 0.04 | 80 | 1016.3 |
| 20260506042014 | 61 | 242 | 6.0 | 9.0 | 0.00 | 0.15 | 0.04 | 81 | 1016.2 |
| 20260506041541 | 61 | 237 | 3.0 | 6.0 | 0.00 | 0.15 | 0.04 | 81 | 1016.2 |
| 20260506041017 | 62 | 231 | 2.0 | 3.0 | 0.00 | 0.15 | 0.04 | 80 | 1016.2 |
| 20260506040516 | 62 | 219 | 1.0 | 3.0 | 0.00 | 0.15 | 0.04 | 80 | 1016.2 |
| 20260506040032 | 62 | 226 | 1.0 | 3.0 | 0.00 | 0.15 | 0.04 | 80 | 1016.2 |
| 20260506035512 | 62 | 226 | 1.0 | 2.0 | 0.00 | 0.23 | 0.04 | 80 | 1016.2 |
| 20260506035013 | 62 | 226 | 0.0 | 2.0 | 0.00 | 0.23 | 0.04 | 80 | 1016.1 |
| 20260506034531 | 62 | 226 | 0.0 | 3.0 | 0.00 | 0.23 | 0.04 | 80 | 1016.0 |
| 20260506034015 | 62 | 226 | 1.0 | 3.0 | 0.00 | 0.23 | 0.04 | 80 | 1016.0 |
| 20260506033513 | 62 | 0 | 0.0 | 3.0 | 0.00 | 0.23 | 0.04 | 80 | 1015.9 |
| 20260506033028 | 62 | 235 | 1.0 | 4.0 | 0.00 | 0.23 | 0.04 | 79 | 1015.9 |
| 20260506032514 | 62 | 203 | 1.0 | 5.0 | 0.00 | 0.23 | 0.04 | 79 | 1015.7 |
| 20260506032014 | 62 | 208 | 2.0 | 5.0 | 0.00 | 0.23 | 0.04 | 80 | 1015.6 |
| 20260506031530 | 62 | 225 | 3.0 | 5.0 | 0.00 | 0.23 | 0.04 | 79 | 1015.6 |
| 20260506031014 | 62 | 225 | 2.0 | 4.0 | 0.00 | 0.23 | 0.04 | 78 | 1015.6 |
| 20260506030515 | 62 | 209 | 2.0 | 5.0 | 0.00 | 0.23 | 0.04 | 78 | 1015.6 |
| 20260506030030 | 62 | 215 | 2.0 | 5.0 | 0.00 | 0.23 | 0.04 | 78 | 1015.5 |
| 20260506025513 | 62 | 208 | 2.0 | 6.0 | 0.00 | 0.23 | 0.04 | 78 | 1015.4 |
| 20260506025014 | 62 | 204 | 3.0 | 6.0 | 0.00 | 0.23 | 0.04 | 78 | 1015.4 |
| 20260506024528 | 63 | 207 | 4.0 | 7.0 | 0.00 | 0.23 | 0.04 | 78 | 1015.3 |
| 20260506024019 | 63 | 198 | 4.0 | 8.0 | 0.00 | 0.23 | 0.04 | 77 | 1015.1 |
| 20260506023514 | 63 | 228 | 5.0 | 9.0 | 0.00 | 0.23 | 0.04 | 76 | 1015.0 |
| 20260506023030 | 63 | 203 | 5.0 | 9.0 | 0.00 | 0.23 | 0.04 | 76 | 1014.9 |
| 20260506022513 | 63 | 209 | 4.0 | 6.0 | 0.00 | 0.23 | 0.04 | 76 | 1014.8 |
| 20260506022015 | 63 | 209 | 4.0 | 6.0 | 0.00 | 0.23 | 0.04 | 76 | 1014.9 |
| 20260506021528 | 63 | 193 | 2.0 | 6.0 | 0.00 | 0.23 | 0.04 | 75 | 1015.0 |
| 20260506021018 | 63 | 200 | 4.0 | 7.0 | 0.00 | 0.23 | 0.04 | 74 | 1015.0 |
| 20260506020517 | 64 | 200 | 4.0 | 7.0 | 0.00 | 0.23 | 0.04 | 74 | 1015.0 |
| 20260506020028 | 64 | 186 | 3.0 | 7.0 | 0.00 | 0.23 | 0.04 | 74 | 1015.0 |
| 20260506015513 | 64 | 229 | 4.0 | 8.0 | 0.00 | 0.24 | 0.04 | 74 | 1015.0 |
| 20260506015014 | 64 | 220 | 4.0 | 9.0 | 0.00 | 0.24 | 0.04 | 73 | 1014.9 |
| 20260506014530 | 65 | 224 | 5.0 | 9.0 | 0.00 | 0.24 | 0.04 | 72 | 1014.9 |
| 20260506014014 | 65 | 184 | 3.0 | 7.0 | 0.00 | 0.24 | 0.04 | 72 | 1014.8 |
| 20260506013512 | 65 | 184 | 3.0 | 6.0 | 0.00 | 0.24 | 0.04 | 73 | 1014.8 |
| 20260506013027 | 65 | 0 | 0.0 | 8.0 | 0.00 | 0.24 | 0.04 | 73 | 1014.8 |
| 20260506012512 | 65 | 0 | 1.0 | 8.0 | 0.00 | 0.24 | 0.04 | 71 | 1014.9 |
| 20260506012015 | 65 | 210 | 2.0 | 8.0 | 0.00 | 0.24 | 0.04 | 70 | 1014.8 |
| 20260506011539 | 66 | 192 | 4.0 | 8.0 | 0.00 | 0.24 | 0.04 | 70 | 1014.8 |
| 20260506011017 | 66 | 183 | 3.0 | 8.0 | 0.00 | 0.24 | 0.04 | 71 | 1014.6 |
| 20260506010514 | 65 | 213 | 2.0 | 6.0 | 0.00 | 0.24 | 0.04 | 72 | 1014.6 |
| 20260506010029 | 65 | 188 | 3.0 | 6.0 | 0.00 | 0.24 | 0.04 | 72 | 1014.6 |
| 20260506005515 | 65 | 203 | 3.0 | 6.0 | 0.00 | 0.25 | 0.04 | 75 | 1014.6 |
| 20260506005012 | 65 | 184 | 4.0 | 6.0 | 0.00 | 0.25 | 0.04 | 73 | 1014.6 |
| 20260506004540 | 65 | 255 | 3.0 | 6.0 | 0.00 | 0.25 | 0.04 | 73 | 1014.6 |
| 20260506004017 | 65 | 219 | 3.0 | 7.0 | 0.00 | 0.25 | 0.04 | 74 | 1014.6 |
| 20260506003514 | 64 | 254 | 3.0 | 7.0 | 0.00 | 0.25 | 0.04 | 74 | 1014.6 |
| 20260506003031 | 65 | 236 | 3.0 | 8.0 | 0.00 | 0.25 | 0.04 | 72 | 1014.6 |
| 20260506002516 | 65 | 215 | 4.0 | 8.0 | 0.00 | 0.25 | 0.04 | 71 | 1014.5 |
| 20260506002014 | 65 | 216 | 5.0 | 7.0 | 0.00 | 0.25 | 0.04 | 71 | 1014.5 |
| 20260506001531 | 65 | 229 | 4.0 | 8.0 | 0.00 | 0.25 | 0.04 | 71 | 1014.6 |
| 20260506001014 | 65 | 215 | 4.0 | 8.0 | 0.00 | 0.25 | 0.04 | 70 | 1014.5 |
| 20260506000516 | 65 | 229 | 5.0 | 8.0 | 0.00 | 0.25 | 0.04 | 71 | 1014.5 |
| 20260506000028 | 65 | 226 | 5.0 | 9.0 | 0.00 | 0.25 | 0.04 | 72 | 1014.4 |
| 20260505235514 | 66 | 239 | 6.0 | 10.0 | 0.00 | 0.25 | 0.04 | 71 | 1014.5 |
| 20260505235013 | 66 | 235 | 6.0 | 10.0 | 0.00 | 0.25 | 0.04 | 72 | 1014.4 |
| 20260505234531 | 66 | 246 | 5.0 | 11.0 | 0.00 | 0.25 | 0.04 | 71 | 1014.4 |
| 20260505234017 | 66 | 236 | 5.0 | 12.0 | 0.00 | 0.25 | 0.04 | 69 | 1014.4 |
| 20260505233512 | 67 | 216 | 5.0 | 12.0 | 0.00 | 0.25 | 0.04 | 69 | 1014.3 |
| 20260505233033 | 67 | 192 | 4.0 | 10.0 | 0.00 | 0.25 | 0.04 | 68 | 1014.3 |
| 20260505232517 | 68 | 189 | 6.0 | 10.0 | 0.00 | 0.25 | 0.04 | 69 | 1014.4 |
| 20260505232014 | 68 | 238 | 7.0 | 10.0 | 0.00 | 0.25 | 0.04 | 69 | 1014.4 |
| 20260505231538 | 66 | 238 | 4.0 | 8.0 | 0.00 | 0.25 | 0.04 | 69 | 1014.3 |
| 20260505231012 | 65 | 217 | 4.0 | 8.0 | 0.00 | 0.25 | 0.04 | 70 | 1014.3 |
| 20260505230515 | 65 | 188 | 3.0 | 7.0 | 0.00 | 0.25 | 0.04 | 73 | 1014.4 |
| 20260505230031 | 65 | 0 | 0.0 | 6.0 | 0.00 | 0.25 | 0.04 | 70 | 1014.4 |
| 20260505225512 | 65 | 293 | 3.0 | 6.0 | 0.00 | 0.25 | 0.04 | 72 | 1014.5 |
| 20260505225011 | 65 | 226 | 4.0 | 7.0 | 0.00 | 0.25 | 0.04 | 68 | 1014.5 |
| 20260505224528 | 66 | 0 | 1.0 | 7.0 | 0.00 | 0.25 | 0.04 | 66 | 1014.5 |
| 20260505224013 | 68 | 208 | 2.0 | 6.0 | 0.00 | 0.25 | 0.04 | 66 | 1014.5 |
| 20260505223514 | 68 | 214 | 4.0 | 6.0 | 0.00 | 0.25 | 0.04 | 68 | 1014.5 |
| 20260505223027 | 67 | 179 | 2.0 | 6.0 | 0.00 | 0.25 | 0.04 | 67 | 1014.7 |
| 20260505222513 | 67 | 0 | 2.0 | 7.0 | 0.00 | 0.25 | 0.04 | 65 | 1014.7 |
| 20260505222016 | 67 | 153 | 1.0 | 7.0 | 0.00 | 0.25 | 0.04 | 65 | 1014.9 |
| 20260505221530 | 67 | 217 | 1.0 | 6.0 | 0.00 | 0.25 | 0.04 | 72 | 1015.0 |
| 20260505221011 | 66 | 155 | 3.0 | 6.0 | 0.00 | 0.25 | 0.04 | 69 | 1014.9 |
| 20260505220512 | 65 | 215 | 1.0 | 7.0 | 0.00 | 0.25 | 0.04 | 73 | 1015.0 |
| 20260505220044 | 66 | 219 | 1.0 | 7.0 | 0.00 | 0.25 | 0.04 | 72 | 1014.9 |
| 20260505215516 | 64 | 198 | 2.0 | 7.0 | 0.00 | 0.25 | 0.04 | 73 | 1015.0 |
| 20260505215012 | 63 | 244 | 4.0 | 8.0 | 0.00 | 0.25 | 0.04 | 76 | 1015.1 |
| 20260505214533 | 63 | 221 | 4.0 | 8.0 | 0.00 | 0.25 | 0.04 | 75 | 1015.1 |
| 20260505214014 | 64 | 236 | 4.0 | 9.0 | 0.00 | 0.25 | 0.04 | 77 | 1015.2 |
| 20260505213514 | 63 | 248 | 4.0 | 9.0 | 0.00 | 0.25 | 0.04 | 77 | 1015.1 |
| 20260505213032 | 62 | 242 | 4.0 | 9.0 | 0.00 | 0.25 | 0.04 | 78 | 1015.1 |
| 20260505212513 | 62 | 253 | 4.0 | 7.0 | 0.00 | 0.25 | 0.04 | 77 | 1015.1 |
| 20260505212014 | 62 | 229 | 3.0 | 9.0 | 0.00 | 0.25 | 0.04 | 77 | 1015.2 |
| 20260505211538 | 62 | 250 | 6.0 | 9.0 | 0.00 | 0.25 | 0.04 | 80 | 1015.2 |
| 20260505211013 | 62 | 234 | 6.0 | 11.0 | 0.00 | 0.25 | 0.04 | 78 | 1015.2 |
| 20260505210513 | 62 | 257 | 5.0 | 11.0 | 0.00 | 0.25 | 0.04 | 78 | 1015.2 |
| 20260505210033 | 63 | 258 | 7.0 | 11.0 | 0.00 | 0.25 | 0.04 | 78 | 1015.2 |
| 20260505205516 | 63 | 251 | 8.0 | 11.0 | 0.00 | 0.25 | 0.04 | 76 | 1015.2 |
| 20260505205012 | 64 | 251 | 7.0 | 11.0 | 0.00 | 0.25 | 0.04 | 74 | 1015.2 |
| 20260505204529 | 66 | 204 | 5.0 | 10.0 | 0.00 | 0.25 | 0.04 | 72 | 1015.2 |
| 20260505204012 | 65 | 234 | 4.0 | 9.0 | 0.00 | 0.25 | 0.04 | 71 | 1015.1 |
| 20260505203511 | 66 | 0 | 3.0 | 9.0 | 0.00 | 0.25 | 0.04 | 67 | 1015.2 |
| 20260505203033 | 66 | 180 | 3.0 | 8.0 | 0.00 | 0.25 | 0.04 | 71 | 1015.1 |
| 20260505202515 | 65 | 122 | 1.0 | 4.0 | 0.00 | 0.25 | 0.04 | 73 | 1015.1 |
| 20260505202012 | 63 | 89 | 1.0 | 6.0 | 0.00 | 0.25 | 0.04 | 80 | 1015.1 |
| 20260505201530 | 62 | 92 | 0.0 | 6.0 | 0.00 | 0.25 | 0.04 | 77 | 1015.2 |
| 20260505201013 | 62 | 96 | 3.0 | 6.0 | 0.00 | 0.25 | 0.04 | 73 | 1015.2 |
| 20260505200551 | 62 | 244 | 1.0 | 6.0 | 0.00 | 0.25 | 0.04 | 74 | 1015.2 |
| 20260505200030 | 62 | 27 | 2.0 | 6.0 | 0.00 | 0.25 | 0.04 | 75 | 1015.3 |
| 20260505195512 | 62 | 0 | 3.0 | 6.0 | 0.00 | 0.25 | 0.04 | 74 | 1015.3 |
| 20260505195013 | 62 | 0 | 0.0 | 6.0 | 0.00 | 0.25 | 0.04 | 74 | 1015.3 |
| 20260505194528 | 62 | 177 | 3.0 | 6.0 | 0.00 | 0.25 | 0.04 | 77 | 1015.3 |
| 20260505194018 | 62 | 0 | 2.0 | 5.0 | 0.00 | 0.25 | 0.04 | 79 | 1015.3 |
| 20260505193512 | 61 | 237 | 1.0 | 5.0 | 0.00 | 0.25 | 0.04 | 75 | 1015.3 |
| 20260505193035 | 61 | 0 | 0.0 | 6.0 | 0.00 | 0.25 | 0.04 | 74 | 1015.3 |
| 20260505192511 | 61 | 0 | 3.0 | 6.0 | 0.00 | 0.25 | 0.04 | 77 | 1015.3 |
| 20260505192014 | 60 | 0 | 1.0 | 5.0 | 0.00 | 0.25 | 0.04 | 83 | 1015.3 |
| 20260505191531 | 60 | 0 | 0.0 | 7.0 | 0.00 | 0.25 | 0.04 | 77 | 1015.3 |
| 20260505191013 | 60 | 248 | 2.0 | 7.0 | 0.00 | 0.25 | 0.04 | 80 | 1015.3 |
| 20260505190517 | 60 | 244 | 3.0 | 7.0 | 0.00 | 0.25 | 0.04 | 81 | 1015.4 |
| 20260505190029 | 61 | 273 | 3.0 | 8.0 | 0.00 | 0.25 | 0.04 | 78 | 1015.4 |
| 20260505185518 | 61 | 203 | 2.0 | 8.0 | 0.00 | 0.25 | 0.04 | 82 | 1015.4 |
| 20260505185015 | 61 | 279 | 4.0 | 8.0 | 0.00 | 0.25 | 0.04 | 78 | 1015.4 |
| 20260505184531 | 61 | 210 | 4.0 | 8.0 | 0.00 | 0.25 | 0.04 | 80 | 1015.4 |
| 20260505184013 | 61 | 194 | 4.0 | 7.0 | 0.00 | 0.25 | 0.04 | 80 | 1015.3 |
| 20260505183514 | 60 | 219 | 3.0 | 7.0 | 0.00 | 0.25 | 0.04 | 81 | 1015.3 |
| 20260505183038 | 59 | 195 | 3.0 | 7.0 | 0.00 | 0.25 | 0.04 | 83 | 1015.3 |
| 20260505182512 | 59 | 213 | 4.0 | 9.0 | 0.00 | 0.25 | 0.04 | 83 | 1015.3 |
| 20260505182016 | 59 | 223 | 4.0 | 9.0 | 0.00 | 0.25 | 0.04 | 84 | 1015.3 |
| 20260505181531 | 58 | 247 | 0.0 | 6.0 | 0.00 | 0.25 | 0.04 | 85 | 1015.3 |
| 20260505181018 | 58 | 223 | 2.0 | 7.0 | 0.00 | 0.25 | 0.04 | 83 | 1015.2 |
| 20260505180511 | 58 | 207 | 3.0 | 8.0 | 0.00 | 0.25 | 0.04 | 82 | 1015.2 |
| 20260505180030 | 58 | 233 | 3.0 | 8.0 | 0.00 | 0.25 | 0.04 | 84 | 1015.1 |
| 20260505175514 | 59 | 226 | 4.0 | 7.0 | 0.00 | 0.25 | 0.04 | 85 | 1015.0 |
| 20260505175013 | 58 | 263 | 3.0 | 7.0 | 0.00 | 0.25 | 0.04 | 85 | 1015.0 |
| 20260505174529 | 59 | 263 | 3.0 | 7.0 | 0.00 | 0.25 | 0.04 | 84 | 1015.0 |
| 20260505174014 | 59 | 219 | 2.0 | 7.0 | 0.00 | 0.25 | 0.04 | 84 | 1015.0 |
| 20260505173513 | 58 | 0 | 3.0 | 7.0 | 0.00 | 0.25 | 0.04 | 87 | 1014.9 |
| 20260505173030 | 58 | 219 | 2.0 | 7.0 | 0.00 | 0.25 | 0.04 | 84 | 1014.9 |
| 20260505172516 | 58 | 237 | 3.0 | 6.0 | 0.00 | 0.25 | 0.04 | 86 | 1015.0 |
| 20260505172012 | 58 | 184 | 2.0 | 6.0 | 0.00 | 0.25 | 0.04 | 88 | 1015.0 |
| 20260505171530 | 57 | 236 | 3.0 | 7.0 | 0.00 | 0.25 | 0.04 | 89 | 1015.0 |
| 20260505171014 | 57 | 146 | 1.0 | 7.0 | 0.00 | 0.25 | 0.04 | 89 | 1014.9 |
| 20260505170514 | 57 | 180 | 3.0 | 6.0 | 0.00 | 0.25 | 0.04 | 90 | 1014.9 |
| 20260505170030 | 57 | 207 | 3.0 | 7.0 | 0.00 | 0.25 | 0.04 | 90 | 1015.0 |
| 20260505165512 | 56 | 209 | 3.0 | 7.0 | 0.00 | 0.25 | 0.04 | 91 | 1015.0 |
| 20260505165014 | 56 | 199 | 3.0 | 7.0 | 0.00 | 0.25 | 0.04 | 91 | 1015.0 |
| 20260505164541 | 56 | 198 | 5.0 | 7.0 | 0.00 | 0.25 | 0.04 | 92 | 1015.0 |
| 20260505164013 | 56 | 213 | 4.0 | 7.0 | 0.00 | 0.25 | 0.04 | 92 | 1015.0 |
| 20260505163513 | 55 | 216 | 4.0 | 6.0 | 0.00 | 0.25 | 0.04 | 93 | 1014.9 |
| 20260505163029 | 55 | 169 | 3.0 | 6.0 | 0.00 | 0.25 | 0.04 | 93 | 1015.0 |
| 20260505162511 | 55 | 159 | 2.0 | 6.0 | 0.00 | 0.25 | 0.04 | 93 | 1015.0 |
| 20260505162014 | 54 | 162 | 2.0 | 6.0 | 0.00 | 0.25 | 0.04 | 93 | 1015.0 |
| 20260505161528 | 54 | 207 | 2.0 | 6.0 | 0.00 | 0.25 | 0.04 | 93 | 1014.9 |
| 20260505161013 | 54 | 175 | 3.0 | 7.0 | 0.00 | 0.25 | 0.04 | 93 | 1014.9 |
| 20260505160514 | 54 | 171 | 3.0 | 7.0 | 0.00 | 0.25 | 0.04 | 93 | 1014.9 |
| 20260505153030 | 53 | 0 | 3.0 | 7.0 | 0.00 | 0.25 | 0.04 | 93 | 1014.7 |
| 20260505152512 | 53 | 142 | 2.0 | 6.0 | 0.00 | 0.25 | 0.04 | 93 | 1014.7 |
| 20260505152015 | 53 | 154 | 3.0 | 7.0 | 0.00 | 0.25 | 0.04 | 93 | 1014.7 |
| 20260505151529 | 53 | 0 | 1.0 | 7.0 | 0.00 | 0.25 | 0.04 | 94 | 1014.6 |
| 20260505151012 | 53 | 174 | 2.0 | 6.0 | 0.00 | 0.25 | 0.04 | 94 | 1014.6 |
| 20260505150513 | 53 | 163 | 1.0 | 6.0 | 0.00 | 0.25 | 0.04 | 94 | 1014.4 |
| 20260505140516 | 52 | 0 | 0.0 | 1.0 | 0.00 | 0.27 | 0.04 | 93 | 1014.1 |
| 20260505125014 | 52 | 0 | 1.0 | 4.0 | 0.00 | 0.27 | 0.04 | 93 | 1013.9 |
| 20260505124536 | 52 | 169 | 0.0 | 3.0 | 0.00 | 0.27 | 0.04 | 93 | 1013.8 |
| 20260505124013 | 52 | 165 | 0.0 | 2.0 | 0.00 | 0.27 | 0.04 | 93 | 1013.8 |
| 20260505123511 | 52 | 0 | 0.0 | 3.0 | 0.00 | 0.27 | 0.04 | 93 | 1013.8 |
| 20260505123030 | 52 | 0 | 0.0 | 4.0 | 0.00 | 0.27 | 0.04 | 93 | 1013.8 |
| 20260505122512 | 52 | 175 | 1.0 | 4.0 | 0.00 | 0.27 | 0.04 | 93 | 1013.7 |
| 20260505122017 | 52 | 179 | 1.0 | 4.0 | 0.00 | 0.27 | 0.04 | 93 | 1013.8 |
| 20260505121534 | 52 | 171 | 1.0 | 3.0 | 0.00 | 0.27 | 0.04 | 93 | 1013.8 |
| 20260505121015 | 52 | 180 | 0.0 | 4.0 | 0.00 | 0.27 | 0.04 | 93 | 1013.9 |
| 20260505120513 | 52 | 180 | 1.0 | 5.0 | 0.00 | 0.27 | 0.04 | 93 | 1013.9 |
| 20260505120034 | 52 | 150 | 1.0 | 5.0 | 0.00 | 0.27 | 0.04 | 93 | 1013.9 |
| 20260505115512 | 52 | 180 | 1.0 | 6.0 | 0.00 | 0.27 | 0.04 | 93 | 1014.0 |
| 20260505115013 | 52 | 173 | 2.0 | 6.0 | 0.00 | 0.27 | 0.04 | 93 | 1013.9 |
| 20260505114529 | 52 | 175 | 2.0 | 5.0 | 0.00 | 0.27 | 0.04 | 93 | 1013.9 |
| 20260505114016 | 52 | 170 | 1.0 | 5.0 | 0.00 | 0.27 | 0.04 | 93 | 1014.0 |
| 20260505113514 | 52 | 0 | 1.0 | 5.0 | 0.00 | 0.27 | 0.04 | 93 | 1013.9 |
| 20260505113032 | 52 | 0 | 1.0 | 5.0 | 0.00 | 0.27 | 0.04 | 93 | 1014.0 |
| 20260505112513 | 52 | 0 | 0.0 | 6.0 | 0.00 | 0.27 | 0.04 | 93 | 1014.0 |
| 20260505112013 | 52 | 166 | 1.0 | 7.0 | 0.00 | 0.27 | 0.04 | 93 | 1014.0 |
| 20260505111528 | 52 | 169 | 3.0 | 7.0 | 0.00 | 0.27 | 0.04 | 93 | 1013.9 |
| 20260505111015 | 52 | 186 | 3.0 | 7.0 | 0.00 | 0.27 | 0.04 | 93 | 1013.7 |
| 20260505110512 | 52 | 214 | 3.0 | 7.0 | 0.00 | 0.27 | 0.04 | 93 | 1013.7 |
| 20260505102011 | 52 | 0 | 0.0 | 3.0 | 0.01 | 0.27 | 0.04 | 92 | 1013.9 |
| 20260505101014 | 52 | 149 | 1.0 | 6.0 | 0.01 | 0.27 | 0.04 | 92 | 1013.9 |
| 20260505100513 | 52 | 176 | 3.0 | 6.0 | 0.01 | 0.27 | 0.04 | 92 | 1013.9 |
| 20260505100031 | 52 | 174 | 1.0 | 6.0 | 0.00 | 0.26 | 0.03 | 92 | 1014.0 |
| 20260505095512 | 52 | 0 | 0.0 | 6.0 | 0.00 | 0.26 | 0.03 | 92 | 1014.1 |
| 20260505095012 | 52 | 181 | 3.0 | 6.0 | 0.00 | 0.26 | 0.03 | 92 | 1014.0 |
| 20260505094533 | 52 | 165 | 1.0 | 6.0 | 0.00 | 0.26 | 0.03 | 92 | 1014.1 |
| 20260505094012 | 52 | 153 | 0.0 | 4.0 | 0.00 | 0.26 | 0.03 | 92 | 1014.1 |
| 20260505093512 | 52 | 0 | 0.0 | 5.0 | 0.00 | 0.26 | 0.03 | 92 | 1014.2 |
| 20260505093031 | 52 | 178 | 3.0 | 5.0 | 0.00 | 0.26 | 0.03 | 92 | 1014.1 |
| 20260505092517 | 52 | 178 | 2.0 | 5.0 | 0.00 | 0.26 | 0.03 | 92 | 1014.3 |
| 20260505092013 | 52 | 189 | 2.0 | 5.0 | 0.00 | 0.26 | 0.03 | 92 | 1014.3 |
| 20260505091530 | 53 | 237 | 3.0 | 6.0 | 0.00 | 0.26 | 0.03 | 92 | 1014.3 |
| 20260505091012 | 53 | 208 | 2.0 | 6.0 | 0.00 | 0.26 | 0.03 | 92 | 1014.4 |
| 20260505090513 | 53 | 220 | 3.0 | 6.0 | 0.00 | 0.26 | 0.03 | 92 | 1014.3 |
| 20260505090031 | 53 | 214 | 2.0 | 5.0 | 0.00 | 0.26 | 0.03 | 92 | 1014.4 |
| 20260505085513 | 53 | 212 | 3.0 | 5.0 | 0.00 | 0.26 | 0.03 | 92 | 1014.4 |
| 20260505085014 | 53 | 175 | 1.0 | 4.0 | 0.00 | 0.26 | 0.03 | 92 | 1014.5 |
| 20260505084543 | 53 | 206 | 2.0 | 4.0 | 0.00 | 0.26 | 0.03 | 92 | 1014.5 |
| 20260505084013 | 53 | 201 | 2.0 | 4.0 | 0.00 | 0.26 | 0.03 | 92 | 1014.6 |
| 20260505083514 | 53 | 211 | 2.0 | 4.0 | 0.01 | 0.26 | 0.03 | 92 | 1014.7 |
| 20260505083031 | 53 | 192 | 2.0 | 5.0 | 0.01 | 0.26 | 0.03 | 92 | 1014.7 |
| 20260505082513 | 53 | 205 | 3.0 | 5.0 | 0.02 | 0.26 | 0.03 | 92 | 1014.7 |
| 20260505082014 | 53 | 210 | 3.0 | 6.0 | 0.02 | 0.26 | 0.03 | 92 | 1014.7 |
| 20260505081532 | 53 | 207 | 3.0 | 6.0 | 0.02 | 0.26 | 0.03 | 92 | 1014.7 |
| 20260505081013 | 53 | 209 | 3.0 | 7.0 | 0.02 | 0.26 | 0.03 | 92 | 1014.6 |